Regional Weather Roundup
Issued by NWS

Home | Current Version | Previous Version | Text Only | Print | Product List | Glossary On
Versions: 1 2 3 4 5 6 7 8 9 10 11 12 13 14 15 16 17 18 19 20 21 22 23 24 25 26 27 28 29 30 31 32 33 34 35 36 37 38 39 40 41 42 43 44 45 46 47 48 49 50
000
ASUS45 KBOI 231810
RWRID
WEATHER ROUNDUP FOR IDAHO
NATIONAL WEATHER SERVICE BOISE ID
1200 PM MDT WED JUL 23 2014

NOTE: "FAIR" INDICATES FEW OR NO CLOUDS BELOW 12000 FEET
WITH NO SIGNIFICANT WEATHER AND/OR OBSTRUCTIONS TO VISIBILITY

IDZ012-014-231900-
SOUTHWEST IDAHO


CITY           SKY/WX    TMP DP  RH WIND       PRES   REMARKS
BOISE          MOSUNNY   82  53  36 NE3       30.04F
CALDWELL       MOSUNNY   79  54  41 E3        30.05F
MOUNTAIN HOME  MOSUNNY   85  46  26 CALM      30.05F
$$

IDZ016-017-231900-
SOUTHCENTRAL IDAHO


CITY           SKY/WX    TMP DP  RH WIND       PRES   REMARKS
BURLEY         MOSUNNY   82  48  30 CALM      30.12F
JEROME         SUNNY     79  49  34 W5        30.13F
TWIN FALLS     SUNNY     83  51  33 NW12      30.12F
$$

IDZ019>023-231900-
SOUTHEAST IDAHO


CITY           SKY/WX    TMP DP  RH WIND       PRES   REMARKS
IDAHO FALLS    MOSUNNY   80  50  34 S8        30.19F
POCATELLO      SUNNY     83  50  31 VRB5      30.16F
REXBURG        SUNNY     79  46  31 SW9       30.20S
$$

IDZ006-010-011-018-031-032-231900-
CENTRAL IDAHO MOUNTAINS


CITY           SKY/WX    TMP DP  RH WIND       PRES   REMARKS
MCCALL         SUNNY     75  49  39 S10       30.13F
HAILEY         MOSUNNY   75  55  50 E10       30.22F
STANLEY          N/A     73  47  39 N6        30.26F
SALMON         PTSUNNY   73  50  43 N5        30.14F
CHALLIS        MOSUNNY   73  46  38 CALM      30.20F
$$

IDZ002-004-006-007-026-231900-
NORTHERN IDAHO


CITY           SKY/WX    TMP DP  RH WIND       PRES   REMARKS
LEWISTON       SUNNY     83  58  42 E9        29.90F
LOWELL           N/A     83  58  42 N3        29.91F
COEUR D`ALENE  SUNNY     77  57  50 E9        29.97F
MULLAN PASS    SUNNY     63  54  72 VRB7      30.17F
$$


USA.gov is the U.S. government's official web portal to all federal, state and local government web resources and services.